When you browse on this site, cookies collect data to enhance your experience and personalize the content and advertising you see.
Visit our Privacy Policy to learn more. By continuing to use the site, you agree to this use of cookies and data.
  • In Hungary
  • List of Countries
  • For 7 days
  • Water Temperature
  • Satellite Maps
  • Weather Map
  • News
  • Weather Widgets
  • user-avatar
    Login

    Hourly Weather Armawir

    Today, 24 April, Wednesday

    Time Temperature Precipitation Wind Pressure Humidity
    00:00 +7°C° 0 mm 0 mps 693 mmHg 54%
    01:00 +6°C° 0 mm 0 mps 693 mmHg 55%
    02:00 +6°C° 0 mm 0 mps 693 mmHg 57%
    03:00 +6°C° 0 mm 1 mps 693 mmHg 59%
    04:00 +6°C° 0 mm 1 mps 693 mmHg 60%
    05:00 +7°C° 0 mm 1 mps 694 mmHg 60%
    06:00 +7°C° 0 mm 1 mps 694 mmHg 61%
    07:00 +8°C° 0 mm 1 mps 694 mmHg 54%
    08:00 +10°C° 0 mm 1 mps 694 mmHg 48%
    09:00 +10°C° 0 mm 2 mps 693 mmHg 43%
    10:00 +12°C° 0 mm 2 mps 693 mmHg 40%
    11:00 +13°C° 0 mm 1 mps 693 mmHg 36%
    12:00 +15°C° 0 mm 1 mps 693 mmHg 33%
    13:00 +15°C° 0 mm 1 mps 693 mmHg 32%
    14:00 +15°C° 0 mm 1 mps 692 mmHg 31%
    15:00 +16°C° 0 mm 1 mps 692 mmHg 30%
    16:00 +15°C° 0 mm 1 mps 692 mmHg 31%
    17:00 +15°C° 0 mm 1 mps 692 mmHg 31%
    18:00 +15°C° 0 mm 1 mps 692 mmHg 32%
    19:00 +13°C° 0 mm 2 mps 692 mmHg 35%
    20:00 +12°C° 0 mm 2 mps 692 mmHg 39%
    21:00 +10°C° 0 mm 2 mps 692 mmHg 42%
    22:00 +10°C° 0 mm 1 mps 693 mmHg 44%
    23:00 +10°C° 0 mm 1 mps 693 mmHg 46%

    Tomorrow, 25 April, Thursday

    Time Temperature Precipitation Wind Pressure Humidity
    00:00 +9°C° 0 mm 1 mps 693 mmHg 49%
    01:00 +9°C° 0 mm 1 mps 693 mmHg 50%
    02:00 +9°C° 0 mm 1 mps 693 mmHg 52%
    03:00 +8°C° 0 mm 1 mps 693 mmHg 53%
    04:00 +7°C° 0.1 mm 0 mps 693 mmHg 55%
    05:00 +7°C° 0.1 mm 0 mps 694 mmHg 56%
    06:00 +7°C° 0.1 mm 0 mps 694 mmHg 58%
    07:00 +9°C° 0 mm 1 mps 693 mmHg 54%
    08:00 +10°C° 0 mm 1 mps 693 mmHg 50%
    09:00 +12°C° 0 mm 1 mps 693 mmHg 46%
    10:00 +13°C° 0 mm 1 mps 693 mmHg 43%
    11:00 +14°C° 0 mm 1 mps 693 mmHg 39%
    12:00 +15°C° 0 mm 1 mps 692 mmHg 35%
    13:00 +15°C° 0 mm 1 mps 692 mmHg 34%
    14:00 +16°C° 0 mm 1 mps 692 mmHg 32%
    15:00 +16°C° 0 mm 2 mps 692 mmHg 30%
    16:00 +16°C° 0 mm 1 mps 691 mmHg 31%
    17:00 +15°C° 0 mm 1 mps 691 mmHg 32%
    18:00 +15°C° 0 mm 1 mps 691 mmHg 32%
    19:00 +14°C° 0 mm 1 mps 692 mmHg 35%
    20:00 +13°C° 0 mm 1 mps 692 mmHg 38%
    21:00 +11°C° 0 mm 1 mps 692 mmHg 41%
    22:00 +10°C° 0 mm 0 mps 693 mmHg 44%
    23:00 +9°C° 0 mm 0 mps 693 mmHg 46%

    Day after tomorrow, 26 April, Friday

    Time Temperature Precipitation Wind Pressure Humidity
    00:00 +8°C° 0 mm 0 mps 693 mmHg 48%
    01:00 +8°C° 0 mm 0 mps 693 mmHg 50%
    02:00 +7°C° 0 mm 0 mps 693 mmHg 52%
    03:00 +7°C° 0 mm 0 mps 692 mmHg 53%
    04:00 +7°C° 0 mm 0 mps 693 mmHg 54%
    05:00 +7°C° 0 mm 0 mps 693 mmHg 55%
    06:00 +7°C° 0 mm 0 mps 693 mmHg 55%
    07:00 +9°C° 0 mm 0 mps 692 mmHg 49%
    08:00 +11°C° 0 mm 1 mps 692 mmHg 44%
    09:00 +13°C° 0 mm 1 mps 692 mmHg 38%
    10:00 +14°C° 0 mm 2 mps 692 mmHg 35%
    11:00 +15°C° 0 mm 2 mps 691 mmHg 32%
    12:00 +16°C° 0 mm 2 mps 691 mmHg 29%
    13:00 +17°C° 0 mm 3 mps 691 mmHg 28%
    14:00 +17°C° 0 mm 3 mps 691 mmHg 27%
    15:00 +18°C° 0 mm 3 mps 690 mmHg 26%
    16:00 +17°C° 0 mm 3 mps 690 mmHg 27%
    17:00 +16°C° 0 mm 2 mps 690 mmHg 29%
    18:00 +16°C° 0 mm 2 mps 690 mmHg 30%
    19:00 +14°C° 0 mm 1 mps 690 mmHg 34%
    20:00 +13°C° 0 mm 1 mps 690 mmHg 37%
    21:00 +10°C° 0 mm 0 mps 691 mmHg 41%
    22:00 +9°C° 0 mm 0 mps 691 mmHg 43%
    23:00 +9°C° 0 mm 0 mps 691 mmHg 46%

    27 April, Saturday

    Time Temperature Precipitation Wind Pressure Humidity
    00:00 +8°C° 0 mm 0 mps 691 mmHg 48%
    01:00 +8°C° 0 mm 0 mps 691 mmHg 50%
    02:00 +8°C° 0 mm 0 mps 690 mmHg 53%
    03:00 +7°C° 0 mm 0 mps 690 mmHg 55%
    04:00 +7°C° 0 mm 0 mps 690 mmHg 56%
    05:00 +8°C° 0 mm 0 mps 691 mmHg 57%
    06:00 +8°C° 0 mm 0 mps 691 mmHg 58%
    07:00 +11°C° 0 mm 1 mps 690 mmHg 50%
    08:00 +12°C° 0 mm 1 mps 690 mmHg 42%
    09:00 +14°C° 0 mm 2 mps 690 mmHg 34%
    10:00 +15°C° 0 mm 2 mps 690 mmHg 32%
    11:00 +16°C° 0 mm 2 mps 690 mmHg 30%
    12:00 +17°C° 0 mm 3 mps 689 mmHg 28%
    13:00 +18°C° 0 mm 3 mps 689 mmHg 27%
    14:00 +18°C° 0 mm 3 mps 689 mmHg 26%
    15:00 +19°C° 0 mm 3 mps 688 mmHg 26%
    16:00 +18°C° 0 mm 3 mps 688 mmHg 27%
    17:00 +18°C° 0 mm 3 mps 688 mmHg 29%
    18:00 +17°C° 0 mm 3 mps 688 mmHg 31%
    19:00 +15°C° 0 mm 2 mps 688 mmHg 33%
    20:00 +14°C° 0 mm 2 mps 688 mmHg 34%
    21:00 +12°C° 0 mm 1 mps 689 mmHg 36%
    22:00 +12°C° 0 mm 1 mps 688 mmHg 36%
    23:00 +11°C° 0 mm 1 mps 688 mmHg 37%

    28 April, Sunday

    Time Temperature Precipitation Wind Pressure Humidity
    00:00 +11°C° 0 mm 1 mps 688 mmHg 38%
    01:00 +10°C° 0 mm 1 mps 688 mmHg 38%
    02:00 +10°C° 0 mm 1 mps 688 mmHg 38%
    03:00 +10°C° 0 mm 1 mps 688 mmHg 38%
    04:00 +10°C° 0 mm 1 mps 688 mmHg 40%
    05:00 +10°C° 0 mm 1 mps 688 mmHg 41%
    06:00 +10°C° 0 mm 1 mps 688 mmHg 43%
    07:00 +12°C° 0 mm 1 mps 688 mmHg 40%
    08:00 +14°C° 0 mm 2 mps 687 mmHg 36%
    09:00 +16°C° 0 mm 2 mps 687 mmHg 33%
    10:00 +17°C° 0 mm 2 mps 687 mmHg 32%
    11:00 +19°C° 0 mm 2 mps 687 mmHg 31%
    12:00 +20°C° 0 mm 2 mps 687 mmHg 30%
    13:00 +20°C° 0 mm 2 mps 687 mmHg 30%
    14:00 +21°C° 0 mm 3 mps 686 mmHg 30%
    15:00 +22°C° 0 mm 3 mps 686 mmHg 30%
    16:00 +21°C° 0.1 mm 3 mps 686 mmHg 32%
    17:00 +20°C° 0.1 mm 3 mps 686 mmHg 34%
    18:00 +19°C° 0.1 mm 4 mps 686 mmHg 36%
    19:00 +18°C° 0 mm 3 mps 686 mmHg 39%
    20:00 +16°C° 0 mm 2 mps 686 mmHg 42%
    21:00 +15°C° 0 mm 2 mps 687 mmHg 45%
    22:00 +14°C° 0 mm 1 mps 687 mmHg 47%
    23:00 +14°C° 0 mm 1 mps 687 mmHg 49%

    29 April, Monday

    Time Temperature Precipitation Wind Pressure Humidity
    00:00 +13°C° 0 mm 1 mps 687 mmHg 51%
    01:00 +13°C° 0 mm 1 mps 686 mmHg 53%
    02:00 +13°C° 0 mm 1 mps 686 mmHg 54%
    03:00 +12°C° 0 mm 1 mps 686 mmHg 56%
    04:00 +13°C° 0 mm 1 mps 686 mmHg 56%
    05:00 +13°C° 0 mm 1 mps 687 mmHg 57%
    06:00 +13°C° 0 mm 1 mps 687 mmHg 58%
    07:00 +15°C° 0 mm 2 mps 687 mmHg 54%
    08:00 +16°C° 0 mm 2 mps 687 mmHg 49%
    09:00 +18°C° 0 mm 3 mps 687 mmHg 45%
    10:00 +19°C° 0 mm 3 mps 687 mmHg 41%
    11:00 +20°C° 0 mm 3 mps 687 mmHg 38%
    12:00 +22°C° 0 mm 3 mps 687 mmHg 34%
    13:00 +22°C° 0.1 mm 3 mps 686 mmHg 34%
    14:00 +22°C° 0.1 mm 3 mps 686 mmHg 33%
    15:00 +22°C° 0.1 mm 3 mps 686 mmHg 33%
    16:00 +21°C° 0.2 mm 3 mps 686 mmHg 36%
    17:00 +21°C° 0.2 mm 3 mps 686 mmHg 38%
    18:00 +20°C° 0.2 mm 2 mps 686 mmHg 41%
    19:00 +18°C° 0.1 mm 2 mps 686 mmHg 46%
    20:00 +17°C° 0.1 mm 2 mps 686 mmHg 50%
    21:00 +15°C° 0.1 mm 1 mps 687 mmHg 55%
    22:00 +15°C° 0 mm 1 mps 687 mmHg 57%
    23:00 +14°C° 0 mm 1 mps 687 mmHg 59%
    Show more